[[{"header":{"parameterUnit":"m.s-1","parameterCategory":2,"la1":30.2991,"la2":30.254,"lo1":-89.0895,"lo2":-89.0444,"dy":0.0017,"dx":0.0017,"nx":28,"ny":28,"refTime":"2024-02-29T09:00:00:Z","depth":"0","parameterNumber":2,"parameterNumberName":"U-component_of_CURRENTS"},"data":[0,0,0,0,0,0,0,0,0,0,0,0,0,0,0,0,0,0,0,0,0,0,0,0,0,0,0,0,0,0,0,0,0,0,0,0,0,0,0,0,0,0,0,0,0,0,0,0,0,0,0,0,0,0,0,0,0,0,0.4018,0.4018,0,0.4015,0.4015,0.4015,0.4005,0.4005,0.4005,0.4005,0.3972,0.3971,0.397,0,0,0,0,0,0,0,0,0,0,0,0,0,0.3954,0.3955,0.4018,0.4018,0.4019,0.4015,0.4015,0.4015,0.4005,0.4005,0.4005,0.4005,0.3972,0.3971,0.397,0,0,0,0,0,0,0,0,0,0,0,0,0,0.3967,0.3956,0.4018,0.4016,0.4015,0.4015,0.4015,0.4014,0.4004,0.4005,0.4005,0.4005,0.3972,0.3971,0.397,0.3959,0,0,0.3965,0.3965,0,0,0,0,0,0,0,0,0.3966,0.3969,0.4016,0.4016,0.4016,0.4013,0.398,0.3996,0.4004,0.4005,0.4005,0.4005,0.3985,0.3982,0.3978,0.3958,0.3956,0.3965,0.3964,0.3964,0.3963,0,0,0,0,0,0,0,0.3965,0.3969,0.4014,0.4016,0.4016,0.3994,0.3996,0.3983,0.3992,0.4005,0.4005,0.401,0.3984,0.3979,0.3977,0.3956,0.3965,0.3964,0.3963,0.3963,0.4019,0.4021,0,0,0,0,0,0,0.3975,0.3968,0.4014,0.4014,0.3994,0.3995,0.3997,0.4011,0.3992,0.3991,0.401,0.401,0.3981,0.3978,0.3976,0.4033,0.3964,0.3963,0.3962,0.4017,0.4019,0.4022,0,0,0,0,0,0,0.3974,0.398,0.4014,0.3993,0.3996,0.3997,0.4012,0.4011,0.4018,0.3997,0.3994,0.402,0.3981,0.3977,0.399,0.4029,0.3962,0.3961,0.4014,0.4017,0.4021,0.4103,0,0,0,0,0,0,0.3972,0.398,0.398,0.3994,0.3998,0.403,0.4012,0.4011,0.4022,0.4021,0.4004,0.4,0.3981,0.3993,0.3989,0.4026,0.396,0.4011,0.4015,0.4019,0.4098,0.4109,0.4119,0,0,0,0,0,0.397,0.3978,0.398,0.3985,0.4003,0.4031,0.4031,0.4029,0.4022,0.4033,0.403,0.4002,0.4019,0.3993,0.3988,0.4026,0.4009,0.4014,0.4019,0.4093,0.4107,0.4119,0,0,0,0,0,0,0.3943,0.3979,0.3981,0.3997,0.402,0.4031,0.4037,0.4038,0.4042,0.4038,0.4019,0.4016,0.4049,0.4027,0.3999,0.4059,0.4014,0.4018,0.4072,0.4084,0.4095,0.4145,0.3958,0,0,0,0,0,0.394,0.3962,0.399,0.4003,0.4019,0.403,0.4036,0.4039,0.4049,0.4051,0.4042,0.4043,0.4065,0.4065,0.407,0.4088,0.4114,0.4115,0.4126,0.4135,0.4175,0.4238,0.4259,0.4039,0.4039,0.4039,0,0,0.393,0.3955,0.3964,0.4,0.4016,0.4046,0.4034,0.4055,0.4083,0.4045,0.4074,0.4076,0.408,0.4114,0.4127,0.4099,0.4213,0.4141,0.4149,0.4186,0.4246,0.4267,0.4286,0.4043,0.4042,0.4041,0,0,0.3929,0.3954,0.397,0.4001,0.4034,0.4053,0.4067,0.4088,0.4104,0.4126,0.4128,0.4167,0.4157,0.4196,0.4209,0.4283,0.4272,0.4272,0.4359,0.4418,0.4437,0.4454,0.4524,0.4546,0.4271,0.4272,0.4272,0,0.3909,0.3942,0.3977,0.4008,0.4036,0.4066,0.4093,0.4124,0.4144,0.4174,0.4145,0.4216,0.421,0.4304,0.4338,0.431,0.4341,0.4303,0.4434,0.4451,0.4467,0.4534,0.4557,0.4276,0.4276,0.4275,0.4275,0,0.392,0.3953,0.3974,0.4032,0.4069,0.41,0.4157,0.4196,0.4213,0.4239,0.4321,0.4334,0.4383,0.4391,0.4386,0.4509,0.4494,0.4442,0.44,0.4494,0.4558,0.4581,0.4283,0.4281,0.428,0.4279,0,0,0.3846,0.3958,0.3959,0.4004,0.4084,0.4118,0.4197,0.4276,0.4342,0.4371,0.4458,0.4521,0.4537,0.456,0.4568,0.4634,0.477,0.4595,0.4595,0.4665,0.4919,0.4838,0.4855,0.473,0.4734,0.4737,0.4922,0,0.3836,0.3906,0.3962,0.4036,0.4085,0.4165,0.4238,0.4319,0.4387,0.4479,0.4545,0.462,0.4598,0.4634,0.4702,0.475,0.4834,0.4727,0.482,0.4824,0.4739,0.488,0.4637,0.4774,0.4944,0.4948,0.4951,0,0.3807,0.3871,0.3938,0.4069,0.4095,0.4143,0.4288,0.4363,0.4515,0.4569,0.4677,0.4722,0.4859,0.4805,0.497,0.4897,0.4939,0.4972,0.4977,0.4896,0.4786,0.4707,0.4809,0.4717,0.4986,0.4983,0.4981,0,0.3739,0.3848,0.3908,0.3949,0.4096,0.4147,0.423,0.438,0.4463,0.4648,0.4719,0.4863,0.4941,0.5024,0.5101,0.5041,0.5273,0.5175,0.516,0.5154,0.4968,0.4937,0.4992,0.5322,0.5321,0.5321,0.532,0,0.3707,0.3755,0.3882,0.392,0.4,0.4116,0.4224,0.4339,0.4503,0.462,0.476,0.4877,0.5,0.5129,0.5173,0.5259,0.5329,0.5236,0.5214,0.4988,0.4959,0.4883,0.4842,0.5328,0.5326,0.5325,0.5324,0,0.3639,0.3713,0.3794,0.3935,0.3972,0.4036,0.4198,0.4297,0.4458,0.4624,0.4687,0.4911,0.5089,0.5214,0.5376,0.5341,0.5285,0.5444,0.5185,0.5129,0.4954,0.4925,0.4805,0.4669,0.5438,0.5438,0.5437,0,0.3622,0.3656,0.3781,0.3826,0.3889,0.3996,0.4078,0.425,0.4365,0.4638,0.4718,0.4952,0.5106,0.5328,0.5341,0.5435,0.5301,0.5245,0.5081,0.4972,0.4926,0.4724,0.4604,0.4877,0.4872,0.4868,0.4864,0,0.3608,0.364,0.3716,0.3798,0.3872,0.3961,0.4093,0.4158,0.4384,0.4516,0.4722,0.4865,0.5089,0.5085,0.5213,0.522,0.497,0.5159,0.5107,0.4572,0.4297,0.4142,0.475,0.4827,0.4831,0.4834,0.4836,0.4837,0.3597,0.3635,0.3723,0.3786,0.3865,0.3934,0.3954,0.4105,0.4235,0.4396,0.4597,0.4711,0.4805,0.4939,0.4936,0.4757,0.4752,0.4591,0.4599,0.443,0.4189,0.4737,0.4737,0.474,0.4743,0.4745,0.4747,0,0.3592,0.3644,0.3715,0.3782,0.3814,0.3872,0.3969,0.3956,0.4035,0.4226,0.4345,0.4372,0.4386,0.4441,0.4363,0.4225,0.3995,0.4124,0.3791,0.3725,0.4277,0.4142,0.3936,0.3936,0.3936,0.3936,0.3936,0.3936,0.3604,0.3648,0.3674,0.3706,0.3738,0.3707,0.3712,0.3704,0.3779,0.3793,0.3793,0.3878,0.4021,0.4079,0.3957,0.3856,0.3605,0.3406,0.3471,0.3884,0.3926,0.3967,0.3831,0.3563,0.3563,0.2693,0.2687,0.2682]},{"header":{"parameterUnit":"m.s-1","parameterCategory":2,"la1":30.2991,"la2":30.254,"lo1":-89.0895,"lo2":-89.0444,"dy":0.0017,"dx":0.0017,"nx":28,"ny":28,"refTime":"2024-02-29T09:00:00:Z","depth":"0","parameterNumber":3,"parameterNumberName":"V-component_of_CURRENTS"},"data":[0,0,0,0,0,0,0,0,0,0,0,0,0,0,0,0,0,0,0,0,0,0,0,0,0,0,0,0,0,0,0,0,0,0,0,0,0,0,0,0,0,0,0,0,0,0,0,0,0,0,0,0,0,0,0,0,0,0,-0.036,-0.036,0,-0.0383,-0.0384,-0.0384,-0.0413,-0.0414,-0.0414,-0.0414,-0.0481,-0.0483,-0.0485,0,0,0,0,0,0,0,0,0,0,0,0,0,-0.0346,-0.0347,-0.036,-0.036,-0.036,-0.0383,-0.0384,-0.0385,-0.0413,-0.0414,-0.0414,-0.0414,-0.0481,-0.0483,-0.0485,0,0,0,0,0,0,0,0,0,0,0,0,0,-0.0362,-0.0347,-0.036,-0.0375,-0.0376,-0.0383,-0.0384,-0.0385,-0.0413,-0.0414,-0.0414,-0.0414,-0.048,-0.0483,-0.0485,-0.0494,0,0,-0.0492,-0.0493,0,0,0,0,0,0,0,0,-0.0361,-0.0363,-0.0373,-0.0374,-0.0376,-0.0393,-0.0404,-0.0422,-0.0413,-0.0402,-0.0414,-0.0414,-0.0454,-0.0459,-0.0466,-0.0497,-0.05,-0.0493,-0.0494,-0.0495,-0.0496,0,0,0,0,0,0,0,-0.036,-0.0362,-0.0372,-0.0373,-0.0374,-0.0383,-0.0386,-0.0408,-0.0429,-0.0403,-0.0405,-0.0403,-0.0456,-0.0463,-0.0468,-0.0501,-0.0492,-0.0495,-0.0496,-0.0497,-0.0566,-0.0566,0,0,0,0,0,0,-0.0351,-0.0361,-0.0371,-0.0372,-0.0366,-0.0383,-0.0386,-0.039,-0.0428,-0.0433,-0.0403,-0.0404,-0.0459,-0.0465,-0.047,-0.0484,-0.0495,-0.0497,-0.0499,-0.0566,-0.0566,-0.0567,0,0,0,0,0,0,-0.035,-0.0352,-0.037,-0.0365,-0.0367,-0.0382,-0.0386,-0.039,-0.0395,-0.0426,-0.0433,-0.0403,-0.0459,-0.0467,-0.0486,-0.0487,-0.0498,-0.0501,-0.0565,-0.0566,-0.0566,-0.0512,0,0,0,0,0,0,-0.035,-0.0352,-0.035,-0.0364,-0.0367,-0.0363,-0.0386,-0.039,-0.0392,-0.0394,-0.0429,-0.0436,-0.046,-0.0482,-0.0488,-0.0491,-0.0502,-0.0565,-0.0566,-0.0566,-0.0514,-0.0511,-0.0509,0,0,0,0,0,-0.035,-0.0339,-0.035,-0.0351,-0.0365,-0.0362,-0.0364,-0.0378,-0.0392,-0.0386,-0.0415,-0.0435,-0.0492,-0.0484,-0.0491,-0.0494,-0.0564,-0.0565,-0.0566,-0.0515,-0.0511,-0.0509,0,0,0,0,0,0,-0.0327,-0.0341,-0.0353,-0.0347,-0.0351,-0.0365,-0.0359,-0.0373,-0.0391,-0.0394,-0.0433,-0.0441,-0.046,-0.0486,-0.0477,-0.0519,-0.0534,-0.0537,-0.0493,-0.049,-0.0488,-0.0468,-0.0504,0,0,0,0,0,-0.0322,-0.032,-0.0334,-0.0326,-0.0328,-0.0345,-0.0346,-0.0353,-0.037,-0.0378,-0.0405,-0.0439,-0.047,-0.0485,-0.0511,-0.053,-0.0529,-0.0541,-0.0538,-0.0536,-0.0526,-0.0538,-0.0535,-0.0569,-0.0569,-0.0569,0,0,-0.0311,-0.0316,-0.0316,-0.0321,-0.0328,-0.032,-0.0347,-0.0339,-0.0336,-0.0383,-0.0391,-0.0426,-0.0472,-0.0492,-0.0505,-0.0514,-0.052,-0.0537,-0.0534,-0.0526,-0.0539,-0.0535,-0.0532,-0.057,-0.057,-0.057,0,0,-0.0273,-0.0292,-0.0275,-0.0277,-0.0278,-0.0292,-0.0287,-0.0301,-0.0314,-0.0322,-0.0363,-0.0398,-0.0434,-0.0474,-0.0498,-0.05,-0.0504,-0.0512,-0.0485,-0.0497,-0.0493,-0.049,-0.0453,-0.0447,-0.0514,-0.0514,-0.0514,0,-0.0257,-0.024,-0.0267,-0.0249,-0.0241,-0.0277,-0.0251,-0.0273,-0.0291,-0.0299,-0.0315,-0.0382,-0.0427,-0.0464,-0.0471,-0.0494,-0.0479,-0.0489,-0.0491,-0.0488,-0.0486,-0.0449,-0.0443,-0.0512,-0.0512,-0.0512,-0.0512,0,-0.0203,-0.0194,-0.0182,-0.0178,-0.0176,-0.0157,-0.0185,-0.0195,-0.0218,-0.024,-0.0271,-0.0334,-0.037,-0.0403,-0.0439,-0.0457,-0.0441,-0.0479,-0.049,-0.0479,-0.044,-0.0435,-0.0508,-0.0509,-0.051,-0.051,0,0,-0.0142,-0.0146,-0.0136,-0.0122,-0.0133,-0.0119,-0.0128,-0.0139,-0.0136,-0.0182,-0.0174,-0.0265,-0.0297,-0.0328,-0.0385,-0.0416,-0.0393,-0.0437,-0.0439,-0.0383,-0.0369,-0.0346,-0.0338,-0.0425,-0.0424,-0.0424,-0.0335,0,-0.0085,-0.0038,-0.0056,-0.0012,0.001,-0.0029,-0.003,-0.0049,-0.0078,-0.0084,-0.0166,-0.0182,-0.027,-0.0278,-0.0325,-0.0376,-0.0383,-0.0411,-0.0403,-0.0401,-0.037,-0.0334,-0.0313,-0.0231,-0.033,-0.0329,-0.0329,0,-0.001,0.0009,0.0064,0.0072,0.0079,0.0097,0.0099,0.0096,0.0053,0.0034,-0.0011,-0.0064,-0.0122,-0.0189,-0.0262,-0.0269,-0.0306,-0.0351,-0.0349,-0.0344,-0.037,-0.0268,-0.0219,-0.0425,-0.0321,-0.0322,-0.0323,0,0.0072,0.0098,0.0146,0.0154,0.0153,0.0171,0.017,0.014,0.0157,0.0122,0.015,0.005,0.0053,-0.0048,-0.0142,-0.0193,-0.019,-0.0273,-0.028,-0.0276,-0.0266,-0.0263,-0.0405,-0.0301,-0.0301,-0.0302,-0.0302,0,0.015,0.019,0.0191,0.0223,0.0283,0.0254,0.0309,0.0287,0.0289,0.0347,0.023,0.0279,0.009,0.0062,-0.0066,-0.0127,-0.0122,-0.025,-0.0255,-0.0244,-0.024,-0.0427,-0.0549,-0.0298,-0.0299,-0.03,-0.03,0,0.0236,0.0236,0.0294,0.0311,0.0328,0.0375,0.0418,0.0453,0.0443,0.0527,0.0535,0.0483,0.0455,0.0291,0.0169,0.0016,-0.0179,-0.0099,-0.0046,-0.0049,-0.0303,-0.042,-0.0525,-0.0623,-0.0115,-0.0114,-0.0114,0,0.0281,0.032,0.0376,0.0421,0.0438,0.0497,0.0543,0.0539,0.0595,0.0675,0.0743,0.0742,0.0781,0.0613,0.0354,0.0168,-0.0059,0.0026,-0.0106,-0.0293,-0.0428,-0.0521,-0.0606,-0.0051,-0.005,-0.0049,-0.0048,0,0.0364,0.0386,0.0433,0.0526,0.0592,0.0666,0.074,0.0814,0.0849,0.096,0.1113,0.1158,0.1008,0.0827,0.0535,0.0364,-0.0136,0.0041,-0.0181,-0.0407,-0.0488,-0.0591,-0.0106,-0.0038,-0.0039,-0.004,-0.0041,-0.0041,0.0427,0.0476,0.0539,0.0629,0.0711,0.0826,0.0922,0.1034,0.1194,0.1399,0.1423,0.1593,0.1244,0.0857,0.0555,0.0005,-0.0028,-0.0201,-0.0322,-0.0394,-0.0526,0.0006,0.007,0.007,0.007,0.0069,0.0069,0,0.0494,0.0545,0.0633,0.0745,0.0855,0.0882,0.1047,0.1175,0.1417,0.1666,0.185,0.1864,0.1406,0.0895,0.0147,-0.0292,-0.0494,-0.0541,-0.0708,-0.0777,-0.0317,-0.0356,-0.0347,-0.0346,-0.0346,-0.0346,-0.0346,-0.0346,0.053,0.0621,0.0661,0.0845,0.0937,0.1109,0.1223,0.1444,0.1662,0.203,0.2235,0.234,0.1959,0.0539,-0.0462,-0.0708,-0.1049,-0.1088,-0.1274,-0.1015,-0.0994,-0.0975,-0.1043,-0.1178,-0.1179,-0.1693,-0.1698,-0.1702]}],[{"header":{"parameterUnit":"m.s-1","parameterCategory":2,"la1":30.2991,"la2":30.254,"lo1":-89.0895,"lo2":-89.0444,"dy":0.0017,"dx":0.0017,"nx":28,"ny":28,"refTime":"2024-02-29T09:00:00:Z","depth":"2","parameterNumber":2,"parameterNumberName":"U-component_of_CURRENTS"},"data":[0,0,0,0,0,0,0,0,0,0,0,0,0,0,0,0,0,0,0,0,0,0,0,0,0,0,0,0,0,0,0,0,0,0,0,0,0,0,0,0,0,0,0,0,0,0,0,0,0,0,0,0,0,0,0,0,0,0,0.2723,0.2723,0,0.2781,0.2782,0.2783,0.2823,0.2823,0.2823,0.2823,0.281,0.281,0.281,0,0,0,0,0,0,0,0,0,0,0,0,0,0.2677,0.2678,0.2723,0.2723,0.2724,0.2781,0.2782,0.2783,0.2823,0.2823,0.2823,0.2823,0.281,0.281,0.281,0,0,0,0,0,0,0,0,0,0,0,0,0,0.2715,0.2678,0.2723,0.2748,0.2751,0.2781,0.2782,0.2784,0.2823,0.2823,0.2823,0.2823,0.2811,0.281,0.281,0.2807,0,0,0.2808,0.2808,0,0,0,0,0,0,0,0,0.2713,0.2718,0.2744,0.2746,0.2749,0.2792,0.2761,0.2787,0.2823,0.2799,0.2823,0.2823,0.2795,0.2796,0.2813,0.2806,0.2806,0.2808,0.2808,0.2807,0.2807,0,0,0,0,0,0,0,0.2711,0.2715,0.2749,0.2744,0.2748,0.2767,0.2773,0.2767,0.2798,0.2801,0.2803,0.2805,0.2797,0.2813,0.2813,0.2805,0.2808,0.2808,0.2807,0.2807,0.2862,0.2864,0,0,0,0,0,0,0.2695,0.2713,0.2747,0.2751,0.2727,0.2767,0.2774,0.2781,0.28,0.2802,0.2805,0.2806,0.2814,0.2813,0.2812,0.2868,0.2807,0.2807,0.2807,0.2861,0.2863,0.2865,0,0,0,0,0,0,0.2694,0.2698,0.2745,0.273,0.2737,0.2768,0.2776,0.2782,0.2804,0.2802,0.2804,0.282,0.2814,0.2813,0.2807,0.2865,0.2807,0.2806,0.2859,0.2861,0.2864,0.2941,0,0,0,0,0,0,0.2693,0.2697,0.2705,0.2729,0.2737,0.2766,0.2776,0.2783,0.2803,0.2806,0.2815,0.2815,0.2814,0.2808,0.2807,0.2863,0.2806,0.2856,0.286,0.2863,0.2936,0.2946,0.2954,0,0,0,0,0,0.2691,0.2698,0.2705,0.2709,0.2744,0.2766,0.2772,0.2796,0.2803,0.2816,0.2816,0.2815,0.283,0.2808,0.2806,0.2864,0.2855,0.2859,0.2863,0.2932,0.2944,0.2954,0,0,0,0,0,0,0.2673,0.2703,0.2711,0.2725,0.2744,0.2771,0.2788,0.2798,0.2813,0.2821,0.2813,0.2812,0.2845,0.283,0.2806,0.2892,0.2852,0.2856,0.2906,0.2916,0.2925,0.2946,0.2806,0,0,0,0,0,0.2673,0.2698,0.2715,0.2729,0.2739,0.2764,0.2778,0.2797,0.2808,0.2817,0.2831,0.2845,0.2862,0.2864,0.2881,0.29,0.2915,0.2944,0.2953,0.2961,0.2977,0.3041,0.3058,0.2878,0.2878,0.2878,0,0,0.2677,0.269,0.2708,0.2728,0.2751,0.2772,0.2775,0.2804,0.2833,0.281,0.286,0.2875,0.2874,0.2918,0.2932,0.2908,0.3021,0.2966,0.2972,0.2985,0.3048,0.3065,0.3081,0.288,0.288,0.288,0,0,0.2685,0.2703,0.2724,0.2745,0.2773,0.2787,0.2793,0.2834,0.2864,0.2892,0.2907,0.295,0.2958,0.2997,0.3004,0.3066,0.3072,0.3076,0.3132,0.3194,0.3209,0.3223,0.3267,0.3285,0.3074,0.3075,0.3075,0,0.2686,0.2704,0.2731,0.2753,0.2774,0.2791,0.2816,0.2848,0.2888,0.2933,0.2915,0.2997,0.3007,0.3068,0.3106,0.3093,0.3113,0.3088,0.3207,0.3221,0.3234,0.3276,0.3294,0.3079,0.3078,0.3078,0.3077,0,0.2703,0.2726,0.274,0.2776,0.2806,0.2828,0.287,0.292,0.2951,0.2999,0.3079,0.309,0.3153,0.3165,0.3152,0.3259,0.324,0.3216,0.318,0.3257,0.3295,0.3313,0.3085,0.3083,0.3082,0.3081,0,0,0.2678,0.274,0.2744,0.2773,0.2821,0.2847,0.2912,0.2982,0.3036,0.3098,0.3187,0.3238,0.3283,0.3296,0.33,0.3341,0.3462,0.3322,0.3324,0.3368,0.3591,0.3503,0.3513,0.3454,0.3458,0.3461,0.3582,0,0.2675,0.2714,0.2752,0.2804,0.2828,0.2891,0.2948,0.3033,0.3088,0.3188,0.3255,0.3329,0.3318,0.3353,0.3411,0.3455,0.3511,0.3431,0.3509,0.3511,0.3425,0.3532,0.3259,0.3337,0.3598,0.3601,0.3603,0,0.2665,0.2696,0.2741,0.2828,0.2848,0.2892,0.2998,0.3054,0.32,0.3262,0.3368,0.3419,0.3542,0.3495,0.3627,0.3575,0.3611,0.3616,0.3621,0.3525,0.3456,0.3302,0.3358,0.3632,0.363,0.3628,0.3626,0,0.2618,0.2688,0.2723,0.2751,0.285,0.2909,0.2971,0.3093,0.3171,0.3325,0.341,0.353,0.3618,0.3679,0.374,0.37,0.3853,0.38,0.3746,0.3739,0.3517,0.3484,0.3898,0.3898,0.3898,0.3897,0.3897,0,0.2586,0.2619,0.2711,0.2734,0.2809,0.2896,0.2981,0.3076,0.3223,0.3324,0.3459,0.3541,0.367,0.3772,0.3797,0.3843,0.392,0.3789,0.378,0.3534,0.3503,0.3757,0.3739,0.3902,0.3901,0.39,0.3899,0,0.253,0.2581,0.2634,0.2743,0.2788,0.285,0.2998,0.3057,0.3208,0.3346,0.3415,0.3617,0.3738,0.383,0.3936,0.3914,0.3949,0.3938,0.3638,0.359,0.3777,0.3762,0.3902,0.39,0.3898,0.3897,0.3896,0,0.2499,0.2519,0.2631,0.2668,0.2722,0.2819,0.2882,0.3044,0.3114,0.3355,0.3427,0.3619,0.3707,0.3856,0.3859,0.3902,0.3951,0.3645,0.3518,0.3809,0.3786,0.3772,0.376,0.3257,0.3251,0.3246,0.3242,0,0.2446,0.2489,0.2534,0.2612,0.2684,0.2752,0.2862,0.2924,0.3103,0.3209,0.3355,0.3449,0.3632,0.3562,0.3643,0.3615,0.3615,0.3542,0.3956,0.3291,0.3209,0.3183,0.319,0.3197,0.3201,0.3205,0.3207,0.3209,0.2403,0.2421,0.2482,0.2549,0.2616,0.2664,0.268,0.2778,0.2865,0.2981,0.3161,0.3204,0.3304,0.3286,0.3212,0.3175,0.3413,0.325,0.3262,0.3281,0.3177,0.3096,0.3044,0.3047,0.305,0.3053,0.3055,0,0.2346,0.2372,0.2414,0.2469,0.2479,0.2567,0.2637,0.2602,0.261,0.2745,0.282,0.2673,0.2673,0.2773,0.2662,0.2678,0.2621,0.2554,0.2454,0.2504,0.2548,0.2401,0.2064,0.2061,0.2057,0.2054,0,0,0.2321,0.2312,0.2324,0.2307,0.2348,0.2304,0.2312,0.2277,0.2318,0.2277,0.2291,0.2531,0.2689,0.2327,0.2309,0.2159,0.2293,0.2072,0.2881,0.2814,0.2851,0.2984,0.2821,0,0,0,0,0]},{"header":{"parameterUnit":"m.s-1","parameterCategory":2,"la1":30.2991,"la2":30.254,"lo1":-89.0895,"lo2":-89.0444,"dy":0.0017,"dx":0.0017,"nx":28,"ny":28,"refTime":"2024-02-29T09:00:00:Z","depth":"2","parameterNumber":3,"parameterNumberName":"V-component_of_CURRENTS"},"data":[0,0,0,0,0,0,0,0,0,0,0,0,0,0,0,0,0,0,0,0,0,0,0,0,0,0,0,0,0,0,0,0,0,0,0,0,0,0,0,0,0,0,0,0,0,0,0,0,0,0,0,0,0,0,0,0,0,0,0.0052,0.0051,0,-0.0004,-0.0005,-0.0006,-0.0047,-0.0047,-0.0047,-0.0047,-0.0104,-0.0105,-0.0107,0,0,0,0,0,0,0,0,0,0,0,0,0,0.0074,0.0074,0.0052,0.0051,0.0051,-0.0004,-0.0005,-0.0006,-0.0047,-0.0047,-0.0047,-0.0048,-0.0104,-0.0105,-0.0107,0,0,0,0,0,0,0,0,0,0,0,0,0,0.0044,0.0074,0.0052,0.0025,0.0023,-0.0004,-0.0005,-0.0006,-0.0047,-0.0047,-0.0047,-0.0048,-0.0103,-0.0105,-0.0107,-0.0115,0,0,-0.0113,-0.0114,0,0,0,0,0,0,0,0,0.0046,0.0043,0.003,0.0027,0.0024,-0.0017,-0.0018,-0.0042,-0.0047,-0.0023,-0.0047,-0.0048,-0.0073,-0.0078,-0.0091,-0.0118,-0.0121,-0.0114,-0.0115,-0.0116,-0.0116,0,0,0,0,0,0,0,0.0048,0.0045,0.0027,0.0029,0.0026,0.0,-0.0004,-0.0023,-0.0048,-0.0025,-0.0028,-0.003,-0.0075,-0.0089,-0.0093,-0.0121,-0.0114,-0.0115,-0.0117,-0.0118,-0.0165,-0.0165,0,0,0,0,0,0,0.0062,0.0047,0.0029,0.0026,0.0037,0.0,-0.0005,-0.0005,-0.0048,-0.0054,-0.003,-0.0032,-0.0085,-0.009,-0.0095,-0.0096,-0.0116,-0.0118,-0.0119,-0.0165,-0.0165,-0.0165,0,0,0,0,0,0,0.0063,0.0061,0.0031,0.0037,0.0032,0.0001,0.0,-0.0006,-0.0017,-0.0051,-0.0058,-0.0033,-0.0086,-0.0092,-0.0101,-0.0099,-0.0119,-0.0121,-0.0165,-0.0165,-0.0165,-0.0105,0,0,0,0,0,0,0.0064,0.0062,0.0066,0.0038,0.0032,0.0028,0.0,-0.0007,-0.0017,-0.002,-0.0056,-0.0062,-0.0087,-0.0098,-0.0103,-0.0102,-0.0122,-0.0165,-0.0165,-0.0165,-0.0107,-0.0103,-0.0099,0,0,0,0,0,0.0065,0.008,0.0067,0.0064,0.0039,0.0029,0.0024,-0.0001,-0.0016,-0.0013,-0.0038,-0.006,-0.0103,-0.0099,-0.0105,-0.0105,-0.0165,-0.0165,-0.0165,-0.0108,-0.0103,-0.0099,0,0,0,0,0,0,0.0095,0.0076,0.0061,0.007,0.0054,0.0024,0.0024,0.0005,-0.0014,-0.0018,-0.0053,-0.006,-0.0072,-0.0095,-0.009,-0.0121,-0.0141,-0.0142,-0.0096,-0.0091,-0.0088,-0.0056,-0.0124,0,0,0,0,0,0.0103,0.0106,0.0084,0.0089,0.0085,0.0054,0.0046,0.0028,0.0009,-0.0001,-0.0027,-0.0057,-0.0079,-0.0088,-0.0113,-0.0121,-0.0141,-0.0129,-0.0125,-0.0122,-0.0101,-0.013,-0.0127,-0.0165,-0.0165,-0.0165,0,0,0.0113,0.0106,0.0105,0.0095,0.0079,0.0085,0.0048,0.0043,0.0046,-0.0003,-0.0007,-0.0043,-0.0078,-0.0091,-0.0099,-0.0108,-0.0124,-0.0122,-0.0118,-0.0099,-0.013,-0.0126,-0.0122,-0.0165,-0.0165,-0.0165,0,0,0.0143,0.0132,0.0144,0.0138,0.0124,0.0109,0.0112,0.0083,0.007,0.0061,0.0022,-0.0004,-0.0037,-0.0063,-0.0079,-0.0069,-0.0104,-0.0087,-0.0038,-0.0067,-0.0063,-0.0061,-0.0086,-0.0086,-0.0083,-0.0083,-0.0083,0,0.0156,0.0172,0.0147,0.0162,0.0166,0.0126,0.0146,0.0129,0.0099,0.0096,0.0071,0.0019,-0.0021,-0.0028,-0.0032,-0.0058,-0.0078,-0.005,-0.006,-0.0058,-0.0056,-0.0083,-0.0083,-0.008,-0.008,-0.0081,-0.0081,0,0.0196,0.0209,0.0219,0.0225,0.0226,0.0237,0.0215,0.0211,0.0187,0.0164,0.0146,0.009,0.0063,0.0034,0.0004,-0.0004,-0.0024,-0.0052,-0.0065,-0.0048,-0.0078,-0.008,-0.0076,-0.0077,-0.0078,-0.0078,0,0,0.0233,0.0245,0.0251,0.0269,0.0263,0.0274,0.0283,0.0285,0.0307,0.0251,0.027,0.0202,0.0162,0.0141,0.0089,0.0061,0.0039,0.0016,0.0013,0.0002,-0.0019,-0.0044,-0.0049,0.001,0.001,0.001,-0.0047,0,0.0275,0.0321,0.0314,0.0362,0.0386,0.0365,0.0388,0.038,0.0365,0.037,0.0299,0.0288,0.0205,0.0195,0.015,0.0075,0.0039,0.0058,-0.0043,-0.0046,-0.0061,-0.005,-0.002,-0.0069,-0.0049,-0.0049,-0.0049,0,0.0324,0.035,0.0405,0.0445,0.0456,0.0481,0.0522,0.0535,0.0523,0.0509,0.0474,0.0416,0.0361,0.029,0.0171,0.0187,0.0092,0.0026,0.0022,-0.0018,-0.0074,-0.0084,-0.0073,-0.0053,-0.0052,-0.0052,-0.0052,0,0.0378,0.042,0.0471,0.0482,0.0517,0.0547,0.057,0.0579,0.0614,0.0601,0.0624,0.0531,0.0507,0.0377,0.0216,0.0196,0.0092,0.0042,-0.007,-0.0074,-0.0074,-0.0077,-0.004,-0.0039,-0.0039,-0.0039,-0.0039,0,0.0435,0.0476,0.0505,0.0536,0.0616,0.0613,0.07,0.0708,0.0738,0.0802,0.0701,0.0729,0.053,0.0435,0.0269,0.0102,0.0122,-0.0049,-0.0085,-0.0054,-0.0055,-0.0062,-0.0063,-0.0041,-0.0041,-0.004,-0.004,0,0.0488,0.0502,0.0567,0.0618,0.0646,0.0705,0.0793,0.0856,0.087,0.0955,0.0956,0.0881,0.0758,0.0552,0.0351,0.0188,0.0019,-0.0051,-0.0,-0.003,-0.0142,-0.014,-0.0176,-0.0177,-0.0178,-0.0179,-0.018,0,0.0518,0.0557,0.0636,0.0692,0.0722,0.081,0.0882,0.0921,0.1001,0.1059,0.1113,0.1017,0.0966,0.0657,0.0357,0.0071,0.0025,-0.0093,-0.0136,-0.0122,-0.0154,-0.015,-0.0147,-0.0118,-0.0118,-0.0118,-0.0118,0,0.0581,0.0607,0.0665,0.0781,0.0867,0.0971,0.1079,0.1162,0.1229,0.1292,0.1359,0.1318,0.1028,0.0737,0.0338,0.0145,-0.0049,-0.0106,-0.0093,-0.0088,-0.0072,-0.0102,-0.01,-0.012,-0.0119,-0.0119,-0.0119,-0.0119,0.0632,0.0686,0.077,0.0882,0.0986,0.113,0.1233,0.1347,0.1478,0.1575,0.1532,0.147,0.1147,0.0631,0.0292,-0.0065,-0.0052,-0.0183,-0.018,-0.0178,-0.0161,-0.0148,-0.0206,-0.0207,-0.0207,-0.0207,-0.0207,0,0.0697,0.0764,0.087,0.101,0.1138,0.1181,0.1365,0.146,0.1619,0.1677,0.1702,0.1392,0.1061,0.0685,0.0156,-0.0158,-0.0178,-0.0256,-0.0214,-0.0209,-0.0206,-0.019,-0.0244,-0.0245,-0.0246,-0.0247,0,0,0.0736,0.0846,0.09,0.1117,0.1222,0.1393,0.1503,0.1628,0.1706,0.1754,0.1708,0.1614,0.1169,0.0781,0.0358,0.0052,-0.0006,-0.0005,0.006,0.0166,0.0172,-0.0126,-0.0092,0,0,0,0,0]}],[{"header":{"parameterUnit":"m.s-1","parameterCategory":2,"la1":30.2991,"la2":30.254,"lo1":-89.0895,"lo2":-89.0444,"dy":0.0017,"dx":0.0017,"nx":28,"ny":28,"refTime":"2024-02-29T09:00:00:Z","depth":"4","parameterNumber":2,"parameterNumberName":"U-component_of_CURRENTS"},"data":[0,0,0,0,0,0,0,0,0,0,0,0,0,0,0,0,0,0,0,0,0,0,0,0,0,0,0,0,0,0,0,0,0,0,0,0,0,0,0,0,0,0,0,0,0,0,0,0,0,0,0,0,0,0,0,0,0,0,0.1612,0.1613,0,0.1673,0.1674,0.1675,0.1735,0.1736,0.1737,0.1737,0.181,0.1811,0.1812,0,0,0,0,0,0,0,0,0,0,0,0,0,0.1529,0.153,0.1612,0.1613,0.1614,0.1673,0.1674,0.1675,0.1734,0.1736,0.1737,0.1738,0.1809,0.181,0.1812,0,0,0,0,0,0,0,0,0,0,0,0,0,0.1574,0.1531,0.1612,0.1652,0.1656,0.1673,0.1674,0.1675,0.1734,0.1736,0.1737,0.1738,0.1809,0.181,0.1812,0.1793,0,0,0.1817,0.1817,0,0,0,0,0,0,0,0,0.1571,0.1577,0.1645,0.1649,0.1654,0.1699,0.1671,0.1716,0.1734,0.1703,0.1737,0.1739,0.1774,0.1778,0.1784,0.1797,0.18,0.1817,0.1818,0.1818,0.1819,0,0,0,0,0,0,0,0.1568,0.1574,0.1635,0.1646,0.1652,0.1661,0.1669,0.168,0.1729,0.1706,0.1711,0.172,0.1776,0.1782,0.1786,0.1801,0.1817,0.1818,0.1819,0.182,0.191,0.1911,0,0,0,0,0,0,0.1563,0.1571,0.1633,0.1637,0.1617,0.1662,0.167,0.1682,0.1728,0.1737,0.1718,0.1722,0.1779,0.1784,0.1789,0.1873,0.1818,0.182,0.1821,0.1908,0.191,0.1911,0,0,0,0,0,0,0.1561,0.1568,0.163,0.1606,0.1615,0.1662,0.1674,0.1683,0.1729,0.1738,0.1747,0.1761,0.178,0.1787,0.1839,0.1872,0.1821,0.1822,0.1906,0.1909,0.1911,0.1974,0,0,0,0,0,0,0.1559,0.1567,0.159,0.1606,0.1617,0.1666,0.1673,0.1683,0.173,0.1737,0.1776,0.1782,0.1782,0.1837,0.184,0.1873,0.1823,0.1905,0.1907,0.191,0.197,0.1978,0.1985,0,0,0,0,0,0.1555,0.1576,0.159,0.1599,0.1641,0.1667,0.1674,0.1709,0.1731,0.1755,0.179,0.1783,0.1856,0.1839,0.1843,0.1878,0.1903,0.1907,0.191,0.1967,0.1977,0.1985,0,0,0,0,0,0,0.1553,0.1584,0.1601,0.1631,0.166,0.1678,0.1709,0.1729,0.1774,0.1792,0.1803,0.1811,0.1867,0.1863,0.1844,0.1911,0.1878,0.1882,0.192,0.1929,0.1936,0.1917,0.1825,0,0,0,0,0,0.1561,0.1589,0.1614,0.1644,0.1661,0.1691,0.1714,0.1737,0.1769,0.1792,0.182,0.1849,0.1875,0.1898,0.1915,0.1952,0.1962,0.1977,0.1984,0.199,0.1977,0.2044,0.2057,0.1922,0.1922,0.1922,0,0,0.1565,0.1591,0.1606,0.1646,0.1673,0.1699,0.171,0.1753,0.1784,0.1791,0.1856,0.1878,0.1891,0.1937,0.1961,0.1944,0.2035,0.1994,0.2,0.1983,0.2049,0.2062,0.2074,0.1924,0.1924,0.1924,0,0,0.1582,0.1616,0.1643,0.1668,0.1716,0.1731,0.1752,0.1792,0.1826,0.188,0.1895,0.194,0.1983,0.1997,0.2008,0.2065,0.2073,0.2079,0.2103,0.2169,0.2181,0.2191,0.2227,0.224,0.2083,0.2083,0.2083,0,0.1593,0.1624,0.1655,0.1686,0.1711,0.175,0.1777,0.1812,0.1867,0.1892,0.1914,0.1986,0.2007,0.2048,0.2073,0.2082,0.2114,0.207,0.218,0.219,0.2199,0.2234,0.2248,0.2087,0.2086,0.2086,0.2086,0,0.1615,0.1653,0.1673,0.1723,0.1753,0.1787,0.1827,0.1873,0.1921,0.1948,0.2017,0.205,0.2092,0.211,0.2112,0.2182,0.2182,0.2184,0.2157,0.2217,0.2249,0.2262,0.2092,0.209,0.2089,0.2089,0,0,0.1605,0.1675,0.1686,0.1709,0.1776,0.1794,0.1857,0.1907,0.1951,0.2012,0.2068,0.2119,0.2145,0.2157,0.2174,0.2224,0.2327,0.2237,0.2239,0.2272,0.2468,0.2326,0.2326,0.2365,0.2367,0.2369,0.2467,0,0.1618,0.1669,0.1706,0.1754,0.1777,0.1831,0.188,0.1934,0.1995,0.2061,0.2103,0.2171,0.2162,0.2208,0.2253,0.2318,0.2363,0.2299,0.2405,0.2407,0.2273,0.2337,0.2377,0.2477,0.248,0.2482,0.2483,0,0.1619,0.1655,0.1705,0.1762,0.1779,0.1821,0.19,0.1953,0.2045,0.2098,0.2164,0.221,0.2291,0.2286,0.2406,0.2376,0.2422,0.2457,0.2462,0.2308,0.2288,0.2403,0.2506,0.2504,0.2503,0.2501,0.25,0,0.1574,0.1646,0.1685,0.1707,0.1785,0.1827,0.1879,0.1969,0.2028,0.2142,0.221,0.2285,0.2374,0.2433,0.2513,0.2487,0.264,0.2616,0.2516,0.2507,0.2577,0.2565,0.2692,0.2692,0.2692,0.2691,0.2691,0,0.1549,0.158,0.1674,0.1692,0.1742,0.1812,0.1889,0.1951,0.2066,0.2133,0.2237,0.2308,0.2428,0.2523,0.2552,0.2575,0.2683,0.2518,0.2525,0.2601,0.2591,0.2586,0.2573,0.2695,0.2694,0.2693,0.2693,0,0.1484,0.155,0.1591,0.1685,0.1724,0.1761,0.1892,0.1938,0.2074,0.2175,0.2227,0.2381,0.2501,0.2585,0.2707,0.2635,0.2666,0.2646,0.2725,0.2735,0.247,0.2459,0.2524,0.2519,0.2516,0.2513,0.251,0,0.145,0.1472,0.1575,0.1603,0.1654,0.1737,0.179,0.1925,0.1979,0.2194,0.2222,0.2409,0.2489,0.2537,0.2635,0.2671,0.2642,0.2628,0.2519,0.2454,0.2455,0.2449,0.2443,0.2505,0.2504,0.2503,0.2502,0,0.1377,0.1432,0.1469,0.1532,0.159,0.1645,0.1737,0.177,0.1929,0.208,0.2174,0.2248,0.2379,0.2451,0.2514,0.2528,0.2614,0.259,0.2596,0.2493,0.2432,0.2436,0.2434,0.249,0.2492,0.2493,0.2494,0,0.1329,0.1328,0.139,0.1431,0.1497,0.1517,0.1587,0.166,0.1743,0.1968,0.2003,0.2194,0.2357,0.2381,0.2435,0.2445,0.2393,0.2292,0.2312,0.2326,0.2216,0.2106,0.2072,0,0,0,0,0,0.1264,0.1249,0.1279,0.1305,0.1368,0.1414,0.1526,0.1603,0.1769,0.1781,0.1886,0.1991,0.2092,0.2195,0.2165,0.2342,0.2396,0.2296,0.2287,0.2422,0.2437,0.2324,0,0,0,0,0,0,0.1213,0.1235,0.1234,0.1197,0.1202,0.1255,0.1325,0.1445,0.146,0.1647,0.1715,0.1863,0.1993,0.209,0.2126,0.2155,0.2106,0.2416,0.2411,0.2414,0.2427,0.2439,0.2328,0,0,0,0,0]},{"header":{"parameterUnit":"m.s-1","parameterCategory":2,"la1":30.2991,"la2":30.254,"lo1":-89.0895,"lo2":-89.0444,"dy":0.0017,"dx":0.0017,"nx":28,"ny":28,"refTime":"2024-02-29T09:00:00:Z","depth":"4","parameterNumber":3,"parameterNumberName":"V-component_of_CURRENTS"},"data":[0,0,0,0,0,0,0,0,0,0,0,0,0,0,0,0,0,0,0,0,0,0,0,0,0,0,0,0,0,0,0,0,0,0,0,0,0,0,0,0,0,0,0,0,0,0,0,0,0,0,0,0,0,0,0,0,0,0,0.012,0.0119,0,0.0086,0.0086,0.0086,0.0064,0.0064,0.0064,0.0064,0.0026,0.0025,0.0024,0,0,0,0,0,0,0,0,0,0,0,0,0,0.0136,0.0136,0.012,0.0119,0.0119,0.0086,0.0086,0.0085,0.0064,0.0064,0.0064,0.0064,0.0026,0.0025,0.0024,0,0,0,0,0,0,0,0,0,0,0,0,0,0.0119,0.0136,0.012,0.0104,0.0103,0.0087,0.0086,0.0085,0.0064,0.0064,0.0064,0.0063,0.0027,0.0026,0.0024,0.002,0,0,0.002,0.002,0,0,0,0,0,0,0,0,0.012,0.0118,0.0107,0.0105,0.0103,0.0079,0.0078,0.0063,0.0064,0.0079,0.0064,0.0063,0.0044,0.0041,0.0035,0.0018,0.0017,0.002,0.0019,0.0019,0.0018,0,0,0,0,0,0,0,0.0121,0.0119,0.0106,0.0107,0.0104,0.0089,0.0087,0.0075,0.0063,0.0077,0.0076,0.0072,0.0043,0.0036,0.0034,0.0016,0.002,0.0019,0.0018,0.0018,-0.0005,-0.0005,0,0,0,0,0,0,0.0127,0.012,0.0107,0.0105,0.0111,0.0089,0.0086,0.0087,0.0063,0.0059,0.0072,0.0071,0.0039,0.0036,0.0033,0.0042,0.0019,0.0018,0.0017,-0.0005,-0.0005,-0.0005,0,0,0,0,0,0,0.0127,0.0126,0.0109,0.0112,0.0109,0.0089,0.009,0.0087,0.0083,0.0059,0.0055,0.0072,0.0039,0.0035,0.0028,0.004,0.0017,0.0016,-0.0006,-0.0005,-0.0005,0.005,0,0,0,0,0,0,0.0128,0.0127,0.0131,0.0113,0.0109,0.0108,0.009,0.0086,0.0081,0.0079,0.0058,0.0054,0.0038,0.003,0.0027,0.0038,0.0015,-0.0006,-0.0005,-0.0005,0.0048,0.0053,0.0056,0,0,0,0,0,0.0129,0.014,0.0131,0.013,0.0115,0.0108,0.0105,0.009,0.0081,0.0085,0.0069,0.0055,0.0029,0.0029,0.0025,0.0036,-0.0006,-0.0005,-0.0005,0.0047,0.0052,0.0056,0,0,0,0,0,0,0.015,0.0138,0.0129,0.0135,0.0125,0.0105,0.0107,0.0094,0.0084,0.0082,0.0059,0.0054,0.0051,0.0034,0.0035,0.0029,0.0009,0.0008,0.0049,0.0054,0.0058,0.0077,0.0014,0,0,0,0,0,0.0156,0.0161,0.0144,0.015,0.0147,0.0127,0.0122,0.0111,0.0098,0.0093,0.0077,0.006,0.0049,0.0045,0.003,0.003,0.0001,0.0032,0.0036,0.004,0.0052,0.0013,0.0015,-0.0003,-0.0003,-0.0004,0,0,0.0165,0.0159,0.0162,0.0154,0.0145,0.0151,0.0124,0.0122,0.0128,0.0091,0.0096,0.0073,0.005,0.005,0.0047,0.0039,0.0027,0.004,0.0044,0.0054,0.0014,0.0016,0.0017,-0.0003,-0.0003,-0.0003,0,0,0.0187,0.0182,0.0193,0.0189,0.0179,0.017,0.0172,0.0154,0.0148,0.0146,0.0121,0.0109,0.0091,0.0079,0.0071,0.0087,0.0047,0.0077,0.0118,0.008,0.0082,0.0083,0.004,0.0037,0.0083,0.0083,0.0083,0,0.0197,0.0211,0.0195,0.0205,0.0211,0.0183,0.02,0.0191,0.0173,0.0175,0.0156,0.0129,0.0108,0.011,0.0116,0.0098,0.0065,0.0105,0.0086,0.0087,0.0086,0.0042,0.0038,0.0086,0.0085,0.0085,0.0085,0,0.0226,0.0239,0.0248,0.0255,0.0259,0.0268,0.0257,0.0257,0.0245,0.0233,0.0226,0.0192,0.0179,0.0165,0.0148,0.0142,0.0113,0.0093,0.0077,0.0092,0.0044,0.0039,0.0089,0.0089,0.0088,0.0087,0,0,0.0248,0.0265,0.027,0.0288,0.0288,0.0299,0.0312,0.0319,0.0336,0.0304,0.0317,0.0288,0.0262,0.025,0.0217,0.0186,0.0153,0.0146,0.0143,0.011,0.0061,0.0048,0.004,0.0125,0.0125,0.0124,0.0025,0,0.0277,0.0314,0.0315,0.0358,0.0379,0.0371,0.0392,0.0394,0.0385,0.0387,0.0345,0.0341,0.0295,0.0291,0.0251,0.018,0.0142,0.0181,0.0047,0.0043,0.0035,0.0035,0.0123,0.002,0.0019,0.0018,0.0017,0,0.0307,0.0331,0.0377,0.0421,0.0431,0.0456,0.0492,0.0507,0.0499,0.0491,0.0469,0.0428,0.0388,0.0342,0.0225,0.0249,0.0165,0.0101,0.0095,0.0064,0.0021,0.0003,0.0007,0.0008,0.0008,0.0009,0.001,0,0.0336,0.0379,0.0423,0.0435,0.0474,0.0504,0.053,0.0542,0.057,0.0558,0.0567,0.0498,0.0472,0.036,0.0227,0.0223,0.0086,0.006,-0.0033,-0.0036,-0.0019,-0.0019,-0.0025,-0.0025,-0.0024,-0.0024,-0.0024,0,0.0368,0.0406,0.0444,0.047,0.0541,0.0551,0.0621,0.0632,0.0654,0.0693,0.0626,0.0625,0.0475,0.0377,0.0245,0.0091,0.0094,-0.0023,-0.0059,0.0004,0.0008,-0.0024,-0.0023,-0.0028,-0.0027,-0.0026,-0.0026,0,0.0391,0.0412,0.0471,0.0528,0.0557,0.0609,0.0694,0.0737,0.0748,0.0793,0.0794,0.0718,0.0588,0.0424,0.0237,0.0125,-0.0027,-0.0085,-0.0005,-0.0035,-0.0131,-0.0126,-0.0198,-0.0199,-0.02,-0.0201,-0.0202,0,0.0403,0.0434,0.0519,0.0568,0.0601,0.0682,0.0742,0.0785,0.0832,0.0849,0.087,0.0766,0.069,0.0422,0.0238,-0.002,-0.0058,-0.0141,-0.0135,-0.012,-0.0147,-0.014,-0.0134,-0.0203,-0.0203,-0.0204,-0.0204,0,0.0433,0.0463,0.0516,0.0617,0.0692,0.0784,0.087,0.0908,0.0953,0.096,0.0934,0.0798,0.0648,0.0429,0.0227,0.0042,-0.0088,-0.0152,-0.0152,-0.0147,-0.0127,-0.0152,-0.0145,-0.0207,-0.0207,-0.0207,-0.0206,0,0.0459,0.0501,0.0574,0.0665,0.0763,0.0858,0.0901,0.0955,0.1,0.1006,0.0992,0.083,0.0736,0.046,0.0276,0.0091,0.0039,-0.0022,-0.0029,-0.0028,0.0049,0.01,0.0064,0,0,0,0,0,0.0481,0.0534,0.0619,0.0723,0.0817,0.0882,0.0976,0.1007,0.1041,0.1032,0.1017,0.0877,0.0608,0.0492,0.0304,0.0239,-0.0004,0.0011,-0.008,-0.0227,-0.0223,-0.0163,0,0,0,0,0,0,0.0498,0.0576,0.062,0.0753,0.0829,0.0944,0.1006,0.1031,0.1028,0.1026,0.0887,0.0825,0.0561,0.0715,0.0299,0.0243,0.0158,-0.0112,-0.0116,-0.0229,-0.0225,-0.0222,-0.016,0,0,0,0,0]}]]